Terminal Aerodrome Forecast
Issued by NWS Rapid City, SD

Home | Current Version | Previous Version | Graphics & Text | Print | Product List | Glossary On
Versions: 1 2 3 4 5 6 7 8 9 10 11 12 13 14 15 16 17 18
692
FTUS43 KUNR 222040 AAA
TAFRAP
TAF AMD
KRAP 222040Z 2221/2318 30024G32KT P6SM BKN100
     FM230100 01010KT P6SM BKN040
     FM231000 03012KT 2SM -SN OVC015
     FM231300 03015KT 1/2SM SN OVC010=

USA.gov is the U.S. government's official web portal to all federal, state and local government web resources and services.